| time (UTC) | temp F | wind direction | speed MPH | gust MPH | rain 1hr in | rain 24hr in | rain mn in | humidity % | barometer mb |
| 20260503020530 | 72 | 157 | 0.0 | 0.0 | 0.00 | 0.00 | 0.00 | 15 | 1014.6 |
| 20260503020027 | 72 | 160 | 0.0 | 0.0 | 0.00 | 0.00 | 0.00 | 15 | 1014.6 |
| 20260503015524 | 73 | 161 | 0.0 | 0.0 | 0.00 | 0.00 | 0.00 | 15 | 1014.5 |
| 20260503015021 | 73 | 161 | 0.0 | 0.0 | 0.00 | 0.00 | 0.00 | 15 | 1014.6 |
| 20260503014517 | 74 | 161 | 0.0 | 0.0 | 0.00 | 0.00 | 0.00 | 15 | 1014.6 |
| 20260503014015 | 74 | 158 | 0.0 | 0.0 | 0.00 | 0.00 | 0.00 | 15 | 1014.5 |
| 20260503013512 | 74 | 156 | 0.0 | 0.0 | 0.00 | 0.00 | 0.00 | 15 | 1014.7 |
| 20260503013010 | 75 | 156 | 0.0 | 0.0 | 0.00 | 0.00 | 0.00 | 15 | 1014.6 |
| 20260503012507 | 75 | 156 | 0.0 | 0.0 | 0.00 | 0.00 | 0.00 | 15 | 1014.7 |
| 20260503012003 | 76 | 155 | 0.0 | 0.0 | 0.00 | 0.00 | 0.00 | 15 | 1014.9 |
| 20260503011500 | 75 | 150 | 0.0 | 0.0 | 0.00 | 0.00 | 0.00 | 15 | 1014.8 |
| 20260503010957 | 75 | 146 | 0.0 | 0.0 | 0.00 | 0.00 | 0.00 | 15 | 1014.7 |
| 20260503010453 | 75 | 126 | 2.0 | 2.0 | 0.00 | 0.00 | 0.00 | 15 | 1014.8 |
| 20260503005951 | 75 | 140 | 0.0 | 1.0 | 0.00 | 0.00 | 0.00 | 15 | 1014.9 |
| 20260503005448 | 74 | 140 | 1.0 | 1.0 | 0.00 | 0.00 | 0.00 | 15 | 1014.8 |
| 20260503004944 | 74 | 118 | 3.0 | 3.0 | 0.00 | 0.00 | 0.00 | 15 | 1014.9 |
| 20260503004441 | 75 | 140 | 0.0 | 0.0 | 0.00 | 0.00 | 0.00 | 15 | 1014.9 |
| 20260503003939 | 75 | 139 | 1.0 | 2.0 | 0.00 | 0.00 | 0.00 | 15 | 1014.9 |
| 20260503003436 | 74 | 147 | 0.0 | 0.0 | 0.00 | 0.00 | 0.00 | 15 | 1014.9 |
| 20260503002933 | 74 | 119 | 5.0 | 6.0 | 0.00 | 0.00 | 0.00 | 15 | 1015.0 |
| 20260503002430 | 74 | 169 | 3.0 | 3.0 | 0.00 | 0.00 | 0.00 | 15 | 1015.2 |
| 20260503001926 | 74 | 150 | 3.0 | 3.0 | 0.00 | 0.00 | 0.00 | 15 | 1015.2 |
| 20260503001423 | 75 | 123 | 2.0 | 5.0 | 0.00 | 0.00 | 0.00 | 15 | 1015.2 |
| 20260503000921 | 75 | 156 | 5.0 | 6.0 | 0.00 | 0.00 | 0.00 | 15 | 1015.2 |
| 20260503000417 | 75 | 134 | 7.0 | 8.0 | 0.00 | 0.00 | 0.00 | 15 | 1015.2 |
| 20260502235914 | 75 | 176 | 2.0 | 2.0 | 0.00 | 0.00 | 0.00 | 15 | 1015.2 |
| 20260502235411 | 75 | 157 | 11.0 | 13.0 | 0.00 | 0.00 | 0.00 | 15 | 1015.2 |
| 20260502234909 | 75 | 161 | 9.0 | 10.0 | 0.00 | 0.00 | 0.00 | 15 | 1015.0 |
| 20260502234405 | 75 | 111 | 3.0 | 5.0 | 0.00 | 0.00 | 0.00 | 15 | 1014.9 |
| 20260502233902 | 76 | 197 | 5.0 | 6.0 | 0.00 | 0.00 | 0.00 | 15 | 1015.4 |
| 20260502233358 | 76 | 159 | 4.0 | 5.0 | 0.00 | 0.00 | 0.00 | 15 | 1015.4 |
| 20260502232855 | 77 | 138 | 4.0 | 5.0 | 0.00 | 0.00 | 0.00 | 15 | 1015.4 |
| 20260502232351 | 77 | 134 | 1.0 | 2.0 | 0.00 | 0.00 | 0.00 | 15 | 1015.3 |
| 20260502231848 | 77 | 146 | 0.0 | 0.0 | 0.00 | 0.00 | 0.00 | 15 | 1015.3 |
| 20260502231346 | 76 | 87 | 3.0 | 3.0 | 0.00 | 0.00 | 0.00 | 15 | 1015.5 |
| 20260502230844 | 75 | 131 | 1.0 | 2.0 | 0.00 | 0.00 | 0.00 | 15 | 1015.4 |
| 20260502230342 | 75 | 151 | 5.0 | 7.0 | 0.00 | 0.00 | 0.00 | 15 | 1015.5 |
| 20260502225838 | 75 | 144 | 1.0 | 1.0 | 0.00 | 0.00 | 0.00 | 15 | 1015.6 |
| 20260502225334 | 75 | 171 | 11.0 | 13.0 | 0.00 | 0.00 | 0.00 | 15 | 1015.6 |
| 20260502224831 | 75 | 110 | 9.0 | 11.0 | 0.00 | 0.00 | 0.00 | 15 | 1015.7 |
| 20260502224327 | 75 | 132 | 10.0 | 10.0 | 0.00 | 0.00 | 0.00 | 15 | 1015.7 |
| 20260502223825 | 74 | 130 | 9.0 | 10.0 | 0.00 | 0.00 | 0.00 | 15 | 1015.9 |
| 20260502223323 | 74 | 167 | 8.0 | 9.0 | 0.00 | 0.00 | 0.00 | 15 | 1015.9 |
| 20260502222821 | 75 | 175 | 12.0 | 14.0 | 0.00 | 0.00 | 0.00 | 15 | 1015.9 |
| 20260502222318 | 75 | 156 | 8.0 | 9.0 | 0.00 | 0.00 | 0.00 | 15 | 1015.8 |
| 20260502221814 | 76 | 148 | 8.0 | 11.0 | 0.00 | 0.00 | 0.00 | 15 | 1016.1 |
| 20260502221310 | 76 | 155 | 3.0 | 3.0 | 0.00 | 0.00 | 0.00 | 15 | 1016.2 |
| 20260502220808 | 75 | 118 | 8.0 | 9.0 | 0.00 | 0.00 | 0.00 | 15 | 1016.1 |
| 20260502220303 | 76 | 133 | 9.0 | 10.0 | 0.00 | 0.00 | 0.00 | 15 | 1016.4 |
| 20260502215800 | 75 | 162 | 4.0 | 5.0 | 0.00 | 0.00 | 0.00 | 15 | 1016.3 |
| 20260502215257 | 76 | 219 | 6.0 | 7.0 | 0.00 | 0.00 | 0.00 | 15 | 1016.4 |
| 20260502214754 | 75 | 217 | 11.0 | 13.0 | 0.00 | 0.00 | 0.00 | 15 | 1016.5 |
| 20260502214251 | 75 | 138 | 6.0 | 7.0 | 0.00 | 0.00 | 0.00 | 15 | 1016.5 |
| 20260502213748 | 75 | 125 | 3.0 | 5.0 | 0.00 | 0.00 | 0.00 | 15 | 1016.5 |
| 20260502213245 | 75 | 163 | 10.0 | 13.0 | 0.00 | 0.00 | 0.00 | 15 | 1016.6 |
| 20260502212744 | 75 | 116 | 10.0 | 11.0 | 0.00 | 0.00 | 0.00 | 15 | 1016.6 |
| 20260502212242 | 76 | 140 | 11.0 | 13.0 | 0.00 | 0.00 | 0.00 | 15 | 1016.7 |
| 20260502211737 | 75 | 135 | 2.0 | 3.0 | 0.00 | 0.00 | 0.00 | 15 | 1016.9 |
| 20260502211235 | 76 | 172 | 11.0 | 13.0 | 0.00 | 0.00 | 0.00 | 15 | 1016.6 |
| 20260502210732 | 75 | 208 | 4.0 | 6.0 | 0.00 | 0.00 | 0.00 | 15 | 1017.1 |
| 20260502210229 | 74 | 142 | 0.0 | 0.0 | 0.00 | 0.00 | 0.00 | 15 | 1017.0 |
| 20260502205726 | 74 | 201 | 7.0 | 8.0 | 0.00 | 0.00 | 0.00 | 15 | 1016.9 |
| 20260502205222 | 75 | 184 | 5.0 | 6.0 | 0.00 | 0.00 | 0.00 | 15 | 1017.1 |
| 20260502204720 | 74 | 174 | 7.0 | 9.0 | 0.00 | 0.00 | 0.00 | 15 | 1017.3 |
| 20260502204217 | 74 | 214 | 11.0 | 13.0 | 0.00 | 0.00 | 0.00 | 15 | 1017.2 |
| 20260502203715 | 75 | 212 | 12.0 | 14.0 | 0.00 | 0.00 | 0.00 | 15 | 1017.2 |
| 20260502203212 | 73 | 228 | 14.0 | 16.0 | 0.00 | 0.00 | 0.00 | 15 | 1017.2 |
| 20260502202706 | 74 | 230 | 8.0 | 9.0 | 0.00 | 0.00 | 0.00 | 15 | 1017.2 |
| 20260502202205 | 74 | 190 | 8.0 | 9.0 | 0.00 | 0.00 | 0.00 | 15 | 1017.4 |
| 20260502201702 | 74 | 223 | 6.0 | 7.0 | 0.00 | 0.00 | 0.00 | 15 | 1017.5 |
| 20260502201158 | 73 | 210 | 9.0 | 9.0 | 0.00 | 0.00 | 0.00 | 15 | 1017.5 |
| 20260502200654 | 73 | 205 | 9.0 | 11.0 | 0.00 | 0.00 | 0.00 | 15 | 1017.5 |
| 20260502200150 | 73 | 190 | 11.0 | 11.0 | 0.00 | 0.00 | 0.00 | 15 | 1017.4 |
| 20260502195649 | 74 | 198 | 10.0 | 11.0 | 0.00 | 0.00 | 0.00 | 15 | 1017.5 |
| 20260502195145 | 73 | 221 | 10.0 | 11.0 | 0.00 | 0.00 | 0.00 | 15 | 1017.5 |
| 20260502194642 | 73 | 198 | 9.0 | 10.0 | 0.00 | 0.00 | 0.00 | 15 | 1017.8 |
| 20260502194138 | 73 | 196 | 12.0 | 14.0 | 0.00 | 0.00 | 0.00 | 15 | 1017.5 |
| 20260502193635 | 73 | 190 | 6.0 | 7.0 | 0.00 | 0.00 | 0.00 | 15 | 1017.8 |
| 20260502193132 | 73 | 182 | 11.0 | 15.0 | 0.00 | 0.00 | 0.00 | 15 | 1017.6 |
| 20260502192627 | 73 | 190 | 11.0 | 13.0 | 0.00 | 0.00 | 0.00 | 15 | 1017.8 |
| 20260502192125 | 73 | 219 | 13.0 | 14.0 | 0.00 | 0.00 | 0.00 | 15 | 1017.9 |
| 20260502191622 | 74 | 193 | 10.0 | 11.0 | 0.00 | 0.00 | 0.00 | 15 | 1018.0 |
| 20260502191119 | 73 | 215 | 13.0 | 15.0 | 0.00 | 0.00 | 0.00 | 15 | 1017.9 |
| 20260502190617 | 73 | 194 | 9.0 | 11.0 | 0.00 | 0.00 | 0.00 | 15 | 1017.9 |
| 20260502190114 | 73 | 184 | 11.0 | 15.0 | 0.00 | 0.00 | 0.00 | 15 | 1017.8 |
| 20260502185608 | 73 | 170 | 20.0 | 23.0 | 0.00 | 0.00 | 0.00 | 15 | 1017.8 |
| 20260502185105 | 73 | 167 | 14.0 | 16.0 | 0.00 | 0.00 | 0.00 | 15 | 1017.8 |
| 20260502184602 | 72 | 176 | 12.0 | 15.0 | 0.00 | 0.00 | 0.00 | 15 | 1017.8 |
| 20260502184057 | 72 | 177 | 8.0 | 10.0 | 0.00 | 0.00 | 0.00 | 15 | 1017.9 |
| 20260502183554 | 72 | 160 | 11.0 | 14.0 | 0.00 | 0.00 | 0.00 | 15 | 1017.8 |
| 20260502183050 | 72 | 198 | 12.0 | 14.0 | 0.00 | 0.00 | 0.00 | 15 | 1018.0 |
| 20260502182546 | 72 | 114 | 11.0 | 14.0 | 0.00 | 0.00 | 0.00 | 15 | 1017.9 |
| 20260502182042 | 73 | 131 | 15.0 | 18.0 | 0.00 | 0.00 | 0.00 | 15 | 1018.1 |
| 20260502181540 | 73 | 144 | 17.0 | 22.0 | 0.00 | 0.00 | 0.00 | 15 | 1017.9 |
| 20260502181038 | 73 | 141 | 13.0 | 18.0 | 0.00 | 0.00 | 0.00 | 15 | 1018.0 |
| 20260502180535 | 72 | 126 | 8.0 | 10.0 | 0.00 | 0.00 | 0.00 | 15 | 1018.0 |
| 20260502170454 | 70 | 153 | 11.0 | 13.0 | 0.00 | 0.00 | 0.00 | 15 | 1018.2 |
| 20260502163937 | 68 | 155 | 1.0 | 2.0 | 0.00 | 0.00 | 0.00 | 15 | 1018.3 |
| 20260502163433 | 67 | 175 | 1.0 | 1.0 | 0.00 | 0.00 | 0.00 | 15 | 1018.2 |
| 20260502162931 | 67 | 184 | 2.0 | 3.0 | 0.00 | 0.00 | 0.00 | 15 | 1018.1 |
| 20260502162428 | 67 | 178 | 3.0 | 3.0 | 0.00 | 0.00 | 0.00 | 15 | 1018.3 |
| 20260502161925 | 66 | 180 | 2.0 | 3.0 | 0.00 | 0.00 | 0.00 | 15 | 1018.4 |
| 20260502161421 | 66 | 171 | 2.0 | 2.0 | 0.00 | 0.00 | 0.00 | 15 | 1018.4 |
| 20260502160919 | 65 | 177 | 3.0 | 3.0 | 0.00 | 0.00 | 0.00 | 15 | 1018.2 |
| 20260502160417 | 65 | 178 | 2.0 | 2.0 | 0.00 | 0.00 | 0.00 | 15 | 1018.3 |
| 20260502151855 | 63 | 141 | 1.0 | 2.0 | 0.00 | 0.00 | 0.00 | 15 | 1018.2 |
| 20260502151351 | 63 | 132 | 2.0 | 2.0 | 0.00 | 0.00 | 0.00 | 15 | 1018.2 |
| 20260502150850 | 63 | 131 | 1.0 | 2.0 | 0.00 | 0.00 | 0.00 | 15 | 1018.1 |
| 20260502150345 | 64 | 131 | 0.0 | 0.0 | 0.00 | 0.00 | 0.00 | 15 | 1017.9 |
| 20260502130734 | 43 | 319 | 5.0 | 5.0 | 0.00 | 0.00 | 0.00 | 15 | 1017.6 |
| 20260502130231 | 49 | 334 | 4.0 | 5.0 | 0.00 | 0.00 | 0.00 | 15 | 1017.3 |
| 20260502123717 | 39 | 337 | 5.0 | 5.0 | 0.00 | 0.00 | 0.00 | 15 | 1017.5 |
| 20260502123214 | 40 | 341 | 5.0 | 5.0 | 0.00 | 0.00 | 0.00 | 15 | 1017.4 |
| 20260502122710 | 40 | 340 | 5.0 | 6.0 | 0.00 | 0.00 | 0.00 | 15 | 1017.6 |
| 20260502122207 | 39 | 339 | 4.0 | 5.0 | 0.00 | 0.00 | 0.00 | 15 | 1017.5 |
| 20260502121706 | 39 | 343 | 3.0 | 3.0 | 0.00 | 0.00 | 0.00 | 15 | 1017.4 |
| 20260502121203 | 40 | 335 | 4.0 | 5.0 | 0.00 | 0.00 | 0.00 | 15 | 1017.8 |
| 20260502120659 | 40 | 333 | 4.0 | 5.0 | 0.00 | 0.00 | 0.00 | 15 | 1017.8 |
| 20260502120156 | 40 | 328 | 3.0 | 3.0 | 0.00 | 0.00 | 0.00 | 15 | 1017.6 |
| 20260502115654 | 42 | 317 | 5.0 | 6.0 | 0.00 | 0.00 | 0.00 | 15 | 1017.5 |
| 20260502115150 | 41 | 326 | 5.0 | 6.0 | 0.00 | 0.00 | 0.00 | 15 | 1017.4 |
| 20260502114646 | 41 | 332 | 5.0 | 6.0 | 0.00 | 0.00 | 0.00 | 15 | 1017.5 |
| 20260502114143 | 41 | 329 | 3.0 | 3.0 | 0.00 | 0.00 | 0.00 | 15 | 1017.6 |
| 20260502113641 | 41 | 320 | 5.0 | 5.0 | 0.00 | 0.00 | 0.00 | 15 | 1017.5 |
| 20260502113139 | 41 | 305 | 4.0 | 5.0 | 0.00 | 0.00 | 0.00 | 15 | 1017.5 |
| 20260502112636 | 42 | 303 | 5.0 | 5.0 | 0.00 | 0.00 | 0.00 | 15 | 1017.8 |
| 20260502112134 | 41 | 303 | 5.0 | 5.0 | 0.00 | 0.00 | 0.00 | 15 | 1017.6 |
| 20260502111631 | 43 | 303 | 5.0 | 5.0 | 0.00 | 0.00 | 0.00 | 15 | 1018.0 |
| 20260502111128 | 45 | 312 | 5.0 | 5.0 | 0.00 | 0.00 | 0.00 | 15 | 1017.5 |
| 20260502110626 | 45 | 312 | 5.0 | 5.0 | 0.00 | 0.00 | 0.00 | 15 | 1017.5 |
| 20260502110123 | 41 | 313 | 5.0 | 5.0 | 0.00 | 0.00 | 0.00 | 15 | 1017.6 |
| 20260502105621 | 41 | 314 | 3.0 | 3.0 | 0.00 | 0.00 | 0.00 | 15 | 1017.6 |
| 20260502105117 | 41 | 324 | 6.0 | 6.0 | 0.00 | 0.00 | 0.00 | 15 | 1017.5 |
| 20260502104615 | 40 | 313 | 5.0 | 6.0 | 0.00 | 0.00 | 0.00 | 15 | 1017.5 |
| 20260502104112 | 40 | 312 | 5.0 | 6.0 | 0.00 | 0.00 | 0.00 | 15 | 1017.5 |
| 20260502103609 | 40 | 312 | 5.0 | 6.0 | 0.00 | 0.00 | 0.00 | 15 | 1017.6 |
| 20260502103108 | 39 | 315 | 4.0 | 5.0 | 0.00 | 0.00 | 0.00 | 15 | 1017.5 |
| 20260502102604 | 41 | 314 | 5.0 | 6.0 | 0.00 | 0.00 | 0.00 | 15 | 1017.5 |
| 20260502102101 | 40 | 314 | 4.0 | 5.0 | 0.00 | 0.00 | 0.00 | 15 | 1017.6 |
| 20260502101559 | 40 | 318 | 5.0 | 6.0 | 0.00 | 0.00 | 0.00 | 15 | 1017.3 |
| 20260502101057 | 41 | 336 | 5.0 | 6.0 | 0.00 | 0.00 | 0.00 | 15 | 1017.5 |
| 20260502100555 | 41 | 333 | 5.0 | 5.0 | 0.00 | 0.00 | 0.00 | 15 | 1017.5 |
| 20260502091530 | 44 | 324 | 7.0 | 7.0 | 0.00 | 0.00 | 0.00 | 15 | 1017.8 |
| 20260502091027 | 44 | 328 | 6.0 | 7.0 | 0.00 | 0.00 | 0.00 | 15 | 1017.8 |
| 20260502090524 | 43 | 340 | 7.0 | 7.0 | 0.00 | 0.00 | 0.00 | 15 | 1017.8 |
| 20260502071419 | 45 | 341 | 5.0 | 6.0 | 0.00 | 0.00 | 0.00 | 15 | 1018.3 |
| 20260502070916 | 46 | 346 | 6.0 | 7.0 | 0.00 | 0.00 | 0.00 | 15 | 1018.3 |
| 20260502070414 | 46 | 356 | 5.0 | 6.0 | 0.00 | 0.00 | 0.00 | 15 | 1018.1 |
| 20260502065912 | 47 | 335 | 4.0 | 5.0 | 0.00 | 0.00 | 0.00 | 15 | 1018.3 |
| 20260502065411 | 46 | 325 | 7.0 | 7.0 | 0.00 | 0.00 | 0.00 | 15 | 1018.2 |
| 20260502064908 | 47 | 332 | 5.0 | 6.0 | 0.00 | 0.00 | 0.00 | 15 | 1018.0 |
| 20260502064406 | 47 | 339 | 6.0 | 7.0 | 0.00 | 0.00 | 0.00 | 15 | 1018.0 |
| 20260502063903 | 48 | 335 | 5.0 | 6.0 | 0.00 | 0.00 | 0.00 | 15 | 1018.1 |
| 20260502063400 | 47 | 338 | 3.0 | 3.0 | 0.00 | 0.00 | 0.00 | 15 | 1018.0 |
| 20260502062858 | 48 | 318 | 4.0 | 5.0 | 0.00 | 0.00 | 0.00 | 15 | 1018.2 |
| 20260502062355 | 49 | 332 | 5.0 | 5.0 | 0.00 | 0.00 | 0.00 | 15 | 1018.1 |
| 20260502061854 | 48 | 357 | 4.0 | 5.0 | 0.00 | 0.00 | 0.00 | 15 | 1018.2 |
| 20260502061351 | 49 | 330 | 6.0 | 7.0 | 0.00 | 0.00 | 0.00 | 15 | 1018.2 |
| 20260502060847 | 48 | 319 | 7.0 | 7.0 | 0.00 | 0.00 | 0.00 | 15 | 1018.2 |
| 20260502060342 | 48 | 328 | 5.0 | 6.0 | 0.00 | 0.00 | 0.00 | 15 | 1018.2 |
| 20260502055840 | 47 | 342 | 4.0 | 5.0 | 0.00 | 0.00 | 0.00 | 15 | 1018.3 |
| 20260502055338 | 48 | 332 | 6.0 | 7.0 | 0.00 | 0.00 | 0.00 | 15 | 1018.1 |
| 20260502054837 | 46 | 333 | 6.0 | 6.0 | 0.00 | 0.00 | 0.00 | 15 | 1018.1 |
| 20260502054334 | 46 | 320 | 3.0 | 3.0 | 0.00 | 0.00 | 0.00 | 15 | 1018.2 |
| 20260502053831 | 47 | 319 | 4.0 | 5.0 | 0.00 | 0.00 | 0.00 | 15 | 1018.3 |
| 20260502053329 | 48 | 310 | 5.0 | 5.0 | 0.00 | 0.00 | 0.00 | 15 | 1018.2 |
| 20260502052826 | 48 | 321 | 5.0 | 5.0 | 0.00 | 0.00 | 0.00 | 15 | 1018.2 |
| 20260502052324 | 49 | 318 | 6.0 | 6.0 | 0.00 | 0.00 | 0.00 | 15 | 1018.2 |
| 20260502051822 | 48 | 319 | 6.0 | 7.0 | 0.00 | 0.00 | 0.00 | 15 | 1018.3 |
| 20260502051321 | 47 | 311 | 6.0 | 6.0 | 0.00 | 0.00 | 0.00 | 15 | 1018.2 |
| 20260502050816 | 46 | 326 | 5.0 | 5.0 | 0.00 | 0.00 | 0.00 | 15 | 1018.4 |
| 20260502050313 | 47 | 338 | 6.0 | 6.0 | 0.00 | 0.00 | 0.00 | 15 | 1018.2 |
| 20260502045810 | 48 | 338 | 4.0 | 5.0 | 0.00 | 0.00 | 0.00 | 15 | 1018.2 |
| 20260502045306 | 49 | 348 | 6.0 | 6.0 | 0.00 | 0.00 | 0.00 | 15 | 1018.2 |
| 20260502044804 | 50 | 357 | 3.0 | 3.0 | 0.00 | 0.00 | 0.00 | 15 | 1018.0 |
| 20260502044259 | 51 | 321 | 3.0 | 3.0 | 0.00 | 0.00 | 0.00 | 15 | 1018.1 |
| 20260502043757 | 53 | 317 | 5.0 | 6.0 | 0.00 | 0.00 | 0.00 | 15 | 1018.3 |
| 20260502043254 | 50 | 320 | 5.0 | 6.0 | 0.00 | 0.00 | 0.00 | 15 | 1018.2 |
| 20260502042754 | 52 | 322 | 5.0 | 6.0 | 0.00 | 0.00 | 0.00 | 15 | 1018.1 |
| 20260502042251 | 51 | 327 | 6.0 | 7.0 | 0.00 | 0.00 | 0.00 | 15 | 1018.2 |
| 20260502041749 | 51 | 330 | 5.0 | 6.0 | 0.00 | 0.00 | 0.00 | 15 | 1018.2 |
| 20260502041246 | 52 | 348 | 6.0 | 6.0 | 0.00 | 0.00 | 0.00 | 15 | 1018.1 |
| 20260502040743 | 50 | 352 | 3.0 | 3.0 | 0.00 | 0.00 | 0.00 | 15 | 1018.0 |
| 20260502040240 | 50 | 312 | 2.0 | 3.0 | 0.00 | 0.00 | 0.00 | 15 | 1018.1 |
| 20260502035735 | 50 | 300 | 3.0 | 3.0 | 0.00 | 0.00 | 0.00 | 15 | 1018.1 |
| 20260502035233 | 52 | 299 | 4.0 | 5.0 | 0.00 | 0.00 | 0.00 | 15 | 1018.0 |
| 20260502034730 | 55 | 303 | 5.0 | 6.0 | 0.00 | 0.00 | 0.00 | 15 | 1017.9 |
| 20260502034228 | 57 | 311 | 6.0 | 7.0 | 0.00 | 0.00 | 0.00 | 15 | 1017.9 |
| 20260502033726 | 58 | 311 | 6.0 | 6.0 | 0.00 | 0.00 | 0.00 | 15 | 1017.8 |
| 20260502033224 | 59 | 315 | 5.0 | 5.0 | 0.00 | 0.00 | 0.00 | 15 | 1018.0 |
| 20260502032720 | 59 | 322 | 5.0 | 6.0 | 0.00 | 0.00 | 0.00 | 15 | 1017.6 |
| 20260502032216 | 59 | 341 | 5.0 | 6.0 | 0.00 | 0.00 | 0.00 | 15 | 1017.8 |
| 20260502031714 | 58 | 10 | 4.0 | 5.0 | 0.00 | 0.00 | 0.00 | 15 | 1017.4 |
| 20260502031212 | 56 | 358 | 3.0 | 3.0 | 0.00 | 0.00 | 0.00 | 15 | 1017.5 |
| 20260502030711 | 54 | 352 | 5.0 | 6.0 | 0.00 | 0.00 | 0.00 | 15 | 1017.5 |
| 20260502030208 | 55 | 292 | 4.0 | 5.0 | 0.00 | 0.00 | 0.00 | 15 | 1017.4 |
| 20260502025705 | 56 | 294 | 3.0 | 3.0 | 0.00 | 0.00 | 0.00 | 15 | 1017.5 |
| 20260502025203 | 57 | 300 | 4.0 | 5.0 | 0.00 | 0.00 | 0.00 | 15 | 1017.5 |
| 20260502024700 | 59 | 302 | 5.0 | 5.0 | 0.00 | 0.00 | 0.00 | 15 | 1017.5 |
| 20260502024158 | 64 | 263 | 4.0 | 5.0 | 0.00 | 0.00 | 0.00 | 15 | 1017.5 |
| 20260502023656 | 66 | 191 | 3.0 | 3.0 | 0.00 | 0.00 | 0.00 | 15 | 1017.5 |
| 20260502023153 | 66 | 190 | 2.0 | 2.0 | 0.00 | 0.00 | 0.00 | 15 | 1017.3 |
| 20260502022650 | 67 | 190 | 2.0 | 2.0 | 0.00 | 0.00 | 0.00 | 15 | 1017.2 |
| 20260502022147 | 68 | 191 | 2.0 | 2.0 | 0.00 | 0.00 | 0.00 | 15 | 1017.4 |
| 20260502021644 | 68 | 192 | 3.0 | 3.0 | 0.00 | 0.00 | 0.00 | 15 | 1017.6 |
| 20260502021141 | 69 | 190 | 1.0 | 2.0 | 0.00 | 0.00 | 0.00 | 15 | 1017.3 |